PDT,Max TemperatureF,Mean TemperatureF,Min TemperatureF,Max Dew PointF,MeanDew PointF,Min DewpointF,Max Humidity, Mean Humidity, Min Humidity, Max Sea Level PressureIn, Mean Sea Level PressureIn, Min Sea Level PressureIn, Max VisibilityMiles, Mean VisibilityMiles, Min VisibilityMiles, Max Wind SpeedMPH, Mean Wind SpeedMPH, Max Gust SpeedMPH,PrecipitationIn, CloudCover, Events, WindDirDegrees
2013-3-1,62,57,51,49,48,47,89,75,60,30.45,30.40,30.31,10,10,10,13,5,16,0.00,7,,220
2013-3-2,57,50,43,47,45,37,93,80,66,30.31,30.22,30.15,10,10,2,15,4,22,0.09,7,Rain,261
2013-3-3,51,42,32,36,33,29,100,71,42,30.32,30.29,30.26,10,10,10,10,2,15,0.00,4,,272
2013-3-4,55,42,28,31,28,24,92,65,38,30.26,30.08,29.92,10,10,10,24,14,33,0.00,0,,88
2013-3-5,46,44,42,37,33,24,82,62,42,29.91,29.80,29.65,10,10,5,25,16,31,0.14,6,Rain,91
2013-3-6,46,44,41,40,38,35,89,80,71,29.97,29.72,29.55,10,9,4,21,8,28,0.36,8,Rain,150
2013-3-7,57,45,33,38,33,30,96,67,38,30.06,30.03,29.99,10,10,10,8,2,10,T,2,,72
2013-3-8,60,45,29,37,33,27,92,63,33,30.22,30.08,30.03,10,10,10,8,3,12,0.00,1,,272
2013-3-9,59,45,30,38,33,28,92,62,31,30.50,30.41,30.24,10,10,10,7,3,8,0.00,1,,69
2013-3-10,51,42,33,44,38,31,93,77,61,30.50,30.46,30.42,10,10,9,7,1,7,T,7,Rain,87
2013-3-11,53,49,45,48,45,42,86,82,77,30.43,30.35,30.25,10,8,4,8,1,9,T,8,Rain,72
2013-3-12,62,55,47,49,47,45,100,79,57,30.22,30.19,30.15,10,10,6,13,4,16,0.00,6,,178
2013-3-13,65,56,46,47,45,43,93,71,48,30.23,30.17,30.09,10,10,10,8,2,12,0.00,3,,75
2013-3-14,61,54,46,48,45,39,89,68,46,30.21,30.12,30.06,10,10,10,18,4,23,T,2,,112
2013-3-15,64,57,49,48,47,43,89,70,51,30.23,30.20,30.15,10,10,10,8,2,10,0.00,7,,266
2013-3-16,52,46,39,46,43,36,86,78,70,30.17,30.10,30.01,10,9,2,20,8,28,0.19,8,Rain,234
2013-3-17,50,45,39,38,35,30,86,68,50,30.30,30.24,30.14,10,10,10,16,5,20,0.06,7,Rain,239
2013-3-18,54,46,37,38,35,33,92,69,46,30.29,30.25,30.17,10,10,10,12,3,15,0.00,5,,147
2013-3-19,50,45,39,39,34,30,85,69,52,30.14,29.96,29.69,10,10,6,25,18,33,0.31,5,Rain,88
2013-3-20,55,48,40,48,41,32,89,77,65,30.16,29.73,29.54,10,9,3,31,11,36,0.29,7,Rain,216
2013-3-21,48,43,38,37,35,30,85,69,53,30.31,30.25,30.18,10,10,5,16,6,22,0.03,8,Rain,257
2013-3-22,47,41,35,36,34,30,92,81,70,30.40,30.33,30.30,10,10,3,15,4,20,0.10,7,Rain,231
2013-3-23,51,43,34,35,32,27,96,69,42,30.40,30.36,30.28,10,10,6,8,2,10,0.00,3,,72
2013-3-24,55,47,38,33,31,29,85,62,38,30.28,30.18,30.09,10,10,10,22,12,28,0.00,5,,79
2013-3-25,60,52,44,36,31,27,61,47,33,30.09,29.99,29.91,10,10,10,22,14,28,T,3,,90
2013-3-26,55,47,38,44,39,34,82,72,61,30.03,30.00,29.97,10,10,10,7,1,9,0.00,6,,91
2013-3-27,67,52,37,50,42,36,93,65,37,29.99,29.94,29.89,10,8,0,17,1,22,0.18,5,Fog-Rain,47
2013-3-28,66,56,46,49,45,42,100,72,44,30.13,30.06,30.03,10,8,1,10,2,13,0.00,5,,84
2013-3-29,69,59,49,49,46,44,86,64,42,30.20,30.17,30.13,10,10,10,8,3,12,T,6,Rain,8
2013-3-30,74,57,40,47,44,39,96,67,38,30.19,30.08,29.97,10,10,10,20,8,24,0.00,0,,89
2013-3-31,76,63,50,49,44,39,71,52,33,30.00,29.95,29.88,10,10,10,18,6,23,0.00,1,,175